Terug naar catalogus

STARLINK-34300

ActiefCommunicatieVLEO
NORAD 64218·PAYLOAD·🇺🇸 United States

Gelanceerd May 31, 2025 vanaf Vandenberg Space Force Base

Loading…

Volgende Passages (komende 24 uur)

TLE

VersSource: CelesTrak SupGP

Epoch: Sep 14, 2026, 21:14 UTC

1 64218C 25117R   26257.88520833  .00041655  00000+0  12307-2 0  2578
2 64218  53.1572 239.7109 0001412  97.7467  54.6070 15.34370078    16

Volg STARLINK-34300 in realtime met AllMySat

Download on the App Store